Regional Weather Roundup
Issued by NWS

Home | Current Version | Previous Version | Graphics & Text | Print | Product List | Glossary On
Versions: 1 2 3 4 5 6 7 8 9 10 11 12 13 14 15 16 17 18 19 20 21 22 23 24 25 26 27 28 29 30 31 32 33 34 35 36 37 38 39 40 41 42 43 44 45 46 47 48 49 50
000
ASUS45 KBOU 042010
RWRCO

WEATHER ROUNDUP FOR COLORADO
NATIONAL WEATHER SERVICE DENVER/BOULDER CO
200 PM MDT SAT JUL 04 2015

NOTE: "FAIR" INDICATES FEW OR NO CLOUDS BELOW 12000 FEET WITH NO
SIGNIFICANT WEATHER AND/OR OBSTRUCTIONS TO VISIBILITY.

COZ001>005-013-030-031-042100-
...NORTHWEST COLORADO...

CITY           SKY/WX    TMP DP  RH WIND       PRES   REMARKS
CRAIG          MOSUNNY   90  45  21 S10G17    30.08F
HAYDEN         MOSUNNY   88  39  18 NW8G18    30.11F
MEEKER         MOSUNNY   87  49  26 SW8       30.12F
MOUNT WERNER   NOT AVBL
STEAMBOAT SPGS MOSUNNY   83  47  27 W3        30.14F
WALDEN         PTSUNNY   77  37  24 NW17G29   30.25R
$$

COZ006>008-011-042100-
...WEST CENTRAL VALLEYS...

CITY           SKY/WX    TMP DP  RH WIND       PRES   REMARKS
GRAND JUNCTION SUNNY     91  47  21 S6        29.99F
MONTROSE       MOSUNNY   86  49  27 W7        30.10F
EAGLE          PTSUNNY   82  45  26 W12       30.16S
RIFLE          MOSUNNY   88  50  27 CALM      30.05F
DELTA          MOSUNNY   93  49  22 SW9       30.05F
NUCLA          NOT AVBL
$$

COZ017>023-064>068-042100-
...SOUTHWEST COLORADO...

CITY           SKY/WX    TMP DP  RH WIND       PRES   REMARKS
DURANGO        MOSUNNY   85  47  26 W7        30.16F
CORTEZ         SUNNY     92  46  20 S7        30.10F
PAGOSA SPRINGS MOSUNNY   79  43  27 S5        30.24F
TELLURIDE      CLOUDY    68  48  47 SW14G20   30.40R
WOLF CREEK PAS NOT AVBL
$$

COZ009-010-012-014-032>034-037-058>063-042100-
...CENTRAL COLORADO...

CITY           SKY/WX    TMP DP  RH WIND       PRES   REMARKS
ASPEN          MOSUNNY   80  44  27 S7        30.23F
BUENA VISTA    PTSUNNY   73  46  38 S13G20    30.23F THUNDER
COPPER MTN     MOSUNNY   64  32  29 W22G29    30.59F
BERTHOUD PASS  FAIR      55  46  71 MISG      30.64S
COTTONWOOD PAS NOT AVBL
GUNNISON       MOSUNNY   72  54  53 S5        30.26F
KREMMLING      MOSUNNY   81  41  24 S14G21    30.19F
LEADVILLE      PTSUNNY   68  39  34 N13G18    30.40F
MONARCH PASS   PTSUNNY   55  43  62 W7        30.69S
SALIDA         PTSUNNY   83  46  26 SW10      30.27R
SUNLIGHT       MOSUNNY   64  48  55 CALM      30.53S
WILKERSON PASS PTSUNNY   63  41  45 E3        30.54F
$$

COZ069>075-042100-
...SAN LUIS VALLEY/SANGRE DE CRISTO MOUNTAINS...

CITY           SKY/WX    TMP DP  RH WIND       PRES   REMARKS
ALAMOSA        SUNNY     80  48  32 NW7       30.22F
LA VETA PASS   MOSUNNY   68  45  42 MISG      30.44F
SAGUACHE       MOSUNNY   79  50  36 S7        30.24F
$$

COZ035-036-038>040-042100-
...NORTHERN COLORADO FRONT RANGE...

CITY           SKY/WX    TMP DP  RH WIND       PRES   REMARKS
DENVER INTL AP MOSUNNY   93  46  19 N10       30.00S
DMNS CITY PARK   N/A     91  45  20 N9G16     29.98S
AURORA         MOSUNNY   90  46  21 NE7       30.02F
FRONT RANGE AP MOSUNNY   91  46  21 N12       30.01F
ERIE MUNI ARPT MOSUNNY   92  38  15 NE6G18    29.97S
BOULDER MUN AP MOSUNNY   90  54  29 E5        29.98F
CENTENNIAL     MOSUNNY   90  41  18 NE7       30.03F
BROOMFIELD     MOSUNNY   90  46  22 NE6       30.02S
FORT COLLINS   MOSUNNY   84  57  39 SW7       29.94F
LONGMONT       MOSUNNY   95  49  21 SE5       29.98F
$$

COZ041-046-047-076>085-087-088-042100-
...PIKES PEAK/PALMER DIVIDE AND SOUTHERN FOOTHILLS...

CITY           SKY/WX    TMP DP  RH WIND       PRES   REMARKS
COLO. SPRINGS  TSTM      73  48  41 W31G44    30.11S
A. F. ACADEMY  PTSUNNY   74  47  37 S18G24    30.13R
ELLICOTT       PTSUNNY  N/A N/A N/A SW7       30.08S
FALCON         PTSUNNY   78  58  48 SW15G21   30.18R
FORT CARSON    TSTM      73  54  49 NW15G23   30.11R
LIMON          SUNNY     86  56  35 SE12      30.02F
MONUMENT HILL  NOT AVBL
TRINIDAD       SUNNY     89  45  21 VRB3      30.04F
$$

COZ042>045-048>051-090-091-042100-
...NORTHEAST COLORADO...

CITY           SKY/WX    TMP DP  RH WIND       PRES   REMARKS
GREELEY ARPT   SUNNY     91  57  31 S6        29.94F
AKRON          SUNNY     91  53  27 S10G24    29.95F
BURLINGTON     SUNNY     92  53  26 SE20G25   29.96F
WRAY           SUNNY     96  52  21 S12G23    29.91F
STERLING       SUNNY     95  55  26 S13         N/A
HOLYOKE        SUNNY     95  59  30 SE16G23   29.92F
FORT MORGAN    SUNNY     90  50  25 SE5       29.94F
$$

COZ086-089-092>099-042100-
...SOUTHEAST COLORADO...

CITY           SKY/WX    TMP DP  RH WIND       PRES   REMARKS
PUEBLO         MOSUNNY   94  53  25 VRB6      29.95F
LA JUNTA       SUNNY     96  50  20 SE8       29.92F
LAMAR          SUNNY     95  55  26 SE8       29.89F
SPRINGFIELD      N/A     94  54  25 S17G25    29.96F
$$


USA.gov is the U.S. government's official web portal to all federal, state and local government web resources and services.